sat.trackr.live / text

‹ back to catalog

STARLINK-30897

NORAD 58360 · 2023-177K

PAYLOAD ACTIVE UNKNOWN

§ Identity

Operator
Country
US
Launch date
2023-11-18
Launch site
AFETR
Launch vehicle
Mass (kg)
RCS (m²)

Purposes: comms

External: N2YO · Heavens-Above · Gunter

§ Orbital elements

Epoch: 2026-05-25T02:45:28.236096Z

Period
94.27 min
Inclination
43.0018°
Eccentricity
0.0001284
Mean motion
15.27573871 rev/d
Perigee alt
482.2 km
Apogee alt
483.9 km
Semi-major
6,861.2 km
B*
-9.4843e-6
RAAN
293.6296°
Arg perigee
267.0611°
Mean anomaly
93.0094°
Rev number
13,974

§ Raw data

STARLINK-308971 58360U 23177K   26145.11491014 -.00000523  00000+0 -94843-5 0  99952 58360  43.0018 293.6296 0001284 267.0611  93.0094 15.27573871139740

JSON: /api/v1/satellites/58360 · /tle

For live sub-satellite position, see the globe view (requires WebGL).

§ Visibility from observer

Set your observer location to see the next 7 days of passes ≥ 10°. The values pass through the URL so the page stays shareable.

No JS? Fill the form by hand. The geolocation button needs JavaScript.